Regional Weather Roundup
Issued by NWS Charleston, SC

Current Version | Previous Version | Graphics & Text | Print | Product List | Glossary On
Versions: 1 2 3 4 5 6 7 8 9 10 11 12 13 14 15 16 17 18 19 20 21 22 23 24 25 26 27 28 29 30 31 32 33 34 35 36 37 38 39 40 41 42 43 44 45 46 47 48 49 50
000
ASUS42 KCHS 300425
RWRCHS

REGIONAL WEATHER ROUNDUP
NATIONAL WEATHER SERVICE CHARLESTON SC
1200 AM EDT SAT AUG 30 2014

NOTE: "FAIR" INDICATES FEW OR NO CLOUDS BELOW 12,000 FEET WITH NO
SIGNIFICANT WEATHER AND/OR OBSTRUCTIONS TO VISIBILITY.

NOT ALL STATIONS ARE QUALITY CONTROLLED BY THE NATIONAL
WEATHER SERVICE. USE DATA WITH CAUTION...ESPECIALLY
DEWPOINT OBSERVATIONS.

SCZ027-030-031-034>040-042>050-300500-
...SOUTH CAROLINA...

CITY           SKY/WX    TMP DP  RH WIND       PRES   REMARKS
N CHARLESTON   PTCLDY    79  74  84 CALM      30.13S
WATERFRONT PRK   N/A     81 N/A N/A S5          N/A
FORT JOHNSON   NOT AVBL
MOUNT PLEASANT FAIR      75  73  94 CALM      30.13S
JOHNS ISLAND   CLEAR     75  75 100 CALM      30.13S
PINOPOLIS        N/A     81  75  83 S2        30.06R
MONCKS CORNER    N/A     77  77 100 CALM      30.13S
SUMMERVILLE    FAIR      73  73 100 CALM      30.14S
BEAUFORT MCAS  CLEAR     77  72  84 CALM      30.12S
BEAUFORT ARPT  FAIR      77  73  88 CALM      30.11F
HILTON HEAD IS PTCLDY    82  75  78 SE3       30.12F
GEORGETOWN     NOT AVBL
WALTERBORO     CLEAR     73 N/A N/A CALM      30.13F
ORANGEBURG     PTCLDY    77  68  73 CALM      30.14R
BARNWELL       FAIR      79  70  73 CALM      30.14R
AIKEN          FAIR      77  70  78 SE6       30.17R
MANNING        FAIR      77 N/A N/A CALM      30.13F
KINGSTREE      NOT AVBL
COLUMBIA       CLEAR     79  66  64 S5        30.13R
SUMTER         CLEAR     78  75  91 SE6       30.12R
FLORENCE       CLEAR     76  72  87 S3        30.14S
MYRTLE BEACH   CLEAR     81  73  78 SE9       30.14S
N MYRTLE BEACH CLEAR     82  74  76 SE7       30.14S

$$

GAZ063-065-086>088-099>101-113>116-118-119-134-136>141-150-300500-
...GEORGIA...

CITY           SKY/WX    TMP DP  RH WIND       PRES   REMARKS
SAVANNAH ARPT  PTCLDY    80  73  79 CALM      30.12S
HUNTER AAF     CLEAR     80  75  86 S2        30.10S
FORT STEWART   NOT AVBL
STATESBORO     NOT AVBL
SYLVANIA       PTCLDY    73  72  96 CALM      30.14S
CLAXTON        NOT AVBL
THOMSON        CLEAR     79  71  78 CALM      30.17R
AUGUSTA-BUSH   CLEAR     73  68  84 S3        30.12R
AUGUSTA-DANIEL CLEAR     79  69  71 SE6       30.14R
SWAINSBORO     FAIR      81  75  83 S5        30.13S
VIDALIA          N/A     77  72  83 CALM      30.12S
ALMA           MOCLDY    76  72  87 CALM      30.11R
WAYCROSS       MOCLDY    82  78  87 CALM      30.11R HX  92
JESUP            N/A     77  73  88 CALM      30.11S
BRUNSWICK      CLEAR     82  73  74 S6        30.11S
SAINT SIMONS   CLEAR     81  75  82 S8        30.10S

$$

SCZ027-028-034-036>038-045-046-048>050-GAZ119-141-300500-
...LAKE AND SUPPLEMENTAL COASTAL OBSERVATIONS...

STATION/POSITION TIME  TEMP    WIND        PRES    WAVE   SWELL
                       AIR SEA DIR/SP/G            HT/PER HT/PER/DIR
                 (UTC) (F)     (DEG/KT/KT) (MB)    (FT/S) (FT/S/D)
UPR LAKE MARION  NOT AVBL
WINYAH BAY       0400   82     150/  7     1020.0S
LAKE MURRAY      0400   80     150/  8/ 11 1019.6R
ACE BASIN NERRS  0400   75        CALM     1020.0S
FORT PULASKI     0400   82     150/  6/  9 1019.9R
SAPELO ISLAND    0400   83     160/  8     1020.0R

$$

ANZ835-935-AMZ111-154-330-350-352-354-374-450-454-472-300500-
...C-MAN AND BUOY OBSERVATIONS...

STATION/POSITION TIME  TEMP    WIND        PRES    WAVE   SWELL
                       AIR SEA DIR/SP/G            HT/PER HT/PER/DIR
                 (UTC) (F)     (DEG/KT/KT) (MB)    (FT/S) (FT/S/D)
FOLLY BEACH CMAN 0400   82     170/  7/  8 1020.5F
BUOY 41004       0400   83 83  160/  8/ 10 1019.7S   3/ 8   3/ 8
BUOY 41008       0400   84 84  140/ 14/ 16 1018.7F   2/ 8   2/100/ 8
5E ST. MARYS GA  0400      84                N/A     3/ 9
FRYING PAN BUOY  NOT AVBL
BUOY 41025       0400   79      50/  6/  8 1021.2R   4/ 8   3/140/ 8
CAPE LOOKOUT NC  0400   81     100/  3/  4 1021.4R
BUOY 41002       0328   81 83  130/  8/ 10 1021.7R   3/ 9   3/100/ 9
BUOY 41010       0400   83 84  100/  2/  4 1020.6S   3/ 8   3/ 90/ 8
BUOY 41012       NOT AVBL
ST AUGUSTINE FL  0400   78     210/  9/ 11 1020.4R
CAPERS NEARSHORE 0300   81     190/  8/ 10   N/A
FRIPP NEARSHORE  NOT AVBL


$$


USA.gov is the U.S. government's official web portal to all federal, state and local government web resources and services.